Location: Arbon
(43.0005°N, 0.7472°E)
Time: 02:25:55
(UTC+00:00)

Meteor 1-22 Rocket - Pass Details

Date: 07 August 2020
Orbit: 788 x 940 km, 81.2° (Epoch: 19 September)

Event Time Altitude Azimuth Distance (km) Brightness Sun altitude
Exits shadow 02:27:24 50° 199° (SSW) 1,003 4.2 -22.0°
Maximum altitude 02:28:51 83° 280° (W) 800 3.9 -21.9°
Drops below altitude 10° 02:34:10 10° 9° (N) 2,365 7.4 -21.3°
Sets 02:36:33 0° 10° (N) 3,307 8.3 -21.0°
